Weather in Bolshaya Kosha

Russia / Tver Oblast     56°44′25″N   33°43′23″E
temp.,
°C
wind,
m/s
gust,
m/s
humid.,
%
clouds,
%
prec.,
mm/h
press.,
hPa
HPBL,
m
15 may, sat
sat1500:00+11e2696100 0.0 1010131
03:00+10e31097100 0.0 1008242
06:00+11ese2798100 0.2 1007250
09:00+13sse3693100 1.1 1006462
12:00+17s357773 0.1 1007842
15:00+20sse4652100 0.4 10051783
18:00+17s477594 1.3 1005828
21:00+13s310935 1.6 1005325
16 may, sun
sun1600:00+11s310975 0.0 1006249
03:00+10ssw299831 0.0 1007209
06:00+11ssw399756 0.0 1008306
09:00+16sw477736 0.0 1009661
12:00+19wsw456651 1.1 10091433
15:00+19w357196 4.4 1010918
18:00+19ssw2466100 0.4 1010873
21:00+13sw22890 0.6 101212
17 may, mon
mon1700:00+11ssw229410 0.0 101316
03:00+11s22967 0.0 101417
06:00+12se2495100 0.0 1014111
09:00+17se367486 0.0 1014510
12:00+21se4657100 0.0 10121317
15:00+23se475174 0.0 10111620
18:00+22ese51064100 0.0 10081359
21:00+18ese51489100 1.1 1007441
18 may, tue
tue1800:00+17ese41493100 0.4 1006511
03:00+16ese51494100 0.4 1005542
06:00+16se41392100 0.0 1003517
09:00+19se51280100 0.4 1003715
12:00+23sse61264100 0.0 10021482
15:00+21sse61279100 1.8 10021399
18:00+19s6128498 1.6 10021322
21:00+14ssw3894100 2.3 1004420
19 may, wed
wed1900:00+12s2497100 0.0 100490
03:00+12se239884 0.1 100493
06:00+13ese2697100 0.3 1003188
09:00+15se3793100 0.6 1002615
12:00+13ssw3995100 2.1 1002587
15:00+15wsw6107847 2.6 10031187
18:00+13w597598 0.1 10041033
21:00+10wsw4109145 0.2 1006616